Location: Terra Rouge Observatory
(46.0000°N, 62.7500°W)
Time: 16:38:27
(UTC-04:00)

NOSS 3-1 (A) - Visible Passes

Search period start: 20 January 2018 00:00
Search period end: 30 January 2018 00:00
Orbit: 816 x 1397 km, 63.4° (Epoch: 14 January)

Date Brightness Start Highest point End Pass type
(mag) Time Alt. Az. Time Alt. Az. Time Alt. Az.
20 Jan 5.0 06:25:52 10° S 06:31:03 37° ESE 06:36:50 10° NE visible
20 Jan 7.2 17:38:32 10° WNW 17:42:24 14° WSW 17:46:26 10° SW visible
21 Jan 5.8 05:42:23 10° SSE 05:46:45 23° ESE 05:51:28 10° ENE visible
22 Jan 6.2 05:00:01 10° SE 05:02:34 13° ESE 05:05:14 10° ENE visible
22 Jan 3.6 06:46:23 10° SSW 06:52:07 79° SE 06:58:40 10° NE visible
23 Jan 4.3 06:02:04 10° SSW 06:07:33 50° ESE 06:13:44 10° NE visible
24 Jan 5.1 05:18:12 10° S 05:23:09 31° ESE 05:28:35 10° NE visible
25 Jan 5.8 04:35:02 10° SSE 04:38:53 19° ESE 04:42:59 10° ENE visible
25 Jan 3.4 06:22:58 10° SW 06:28:46 82° NW 06:35:25 10° NE visible
26 Jan 6.3 03:54:23 10° ESE 03:54:45 10° ESE 03:55:07 10° E visible
26 Jan 3.7 05:38:26 10° SSW 05:44:06 66° ESE 05:50:33 10° NE visible
27 Jan 4.5 04:55:07 14° S 04:59:36 41° ESE 05:05:32 10° NE visible
27 Jan 3.8 06:44:46 10° WSW 06:50:26 45° NW 06:56:53 10° NNE visible
28 Jan 5.2 04:12:59 20° SE 04:15:15 25° ESE 04:20:16 10° ENE visible
28 Jan 3.4 06:00:30 14° SW 06:05:29 65° NW 06:12:07 10° NE visible
29 Jan 5.7 03:30:34 15° ESE 03:31:02 15° ESE 03:34:19 10° ENE visible
29 Jan 3.3 05:18:03 35° SSW 05:20:42 86° SE 05:27:18 10° NE visible
